Temperature
23 23 23 23 23 23 22 21 21 21 22 22 23 23 22 21 20 19 18 18 17 16 15 14 13 13 13 12 12 12 12 12 12 12 12 11 12 12 12 11 11 11 11 11
21 22 23 22 23 23 22 22 22 22 22 23 23 22 21 20 20 19 19 18 17 16 15 14 14 13 13 12 12 12 12 12 12 12 12 12 12 12 11 11 11 11 11 11
22 22 21 21 23 23 22 23 22 22 22 23 22 21 21 20 20 19 19 18 17 16 15 14 14 13 13 13 12 12 12 12 12 12 12 12 12 12 11 12 11 11 11 11
22 21 20 23 23 22 22 22 22 22 22 22 21 20 20 19 18 19 18 17 16 16 15 14 13 13 13 12 13 12 12 12 12 12 12 11 12 12 12 11 11 11 11 11
22 21 21 22 22 22 21 20 22 22 21 21 20 20 21 20 18 18 18 17 16 15 15 14 13 13 13 13 12 12 12 12 12 12 12 12 12 12 12 12 11 11 11 12
21 19 20 21 21 20 20 20 21 20 20 20 20 20 21 20 18 18 17 16 15 15 14 14 13 13 13 12 12 12 12 12 12 12 12 12 12 12 11 12 12 11 11 11
19 19 21 21 20 20 18 19 18 18 19 18 19 19 19 19 18 17 16 16 15 14 13 13 12 12 12 12 12 12 12 11 11 11 11 11 11 11 11 11 10 10 10 11
19 18 17 19 19 17 17 18 18 18 18 18 18 18 19 19 19 16 15 15 16 14 13 12 12 12 11 12 12 12 12 11 11 11 11 11 10 10 10 10 10 10 10 10
19 19 19 18 17 16 15 15 16 16 17 17 18 18 18 19 19 18 16 15 15 14 13 12 12 11 12 12 11 11 11 11 10 11 11 11 10 10 10 10 10 10 10 10
16 17 17 16 16 14 13 13 13 13 14 15 16 17 17 18 18 18 17 15 14 14 13 12 12 11 12 12 11 11 11 10 10 10 10 10 11 10 10 10 10 10 10 9
15 15 13 15 13 13 12 11 11 11 12 13 13 14 15 16 16 17 16 16 15 14 13 13 12 12 11 12 11 11 10 10 10 11 10 10 11 10 10 11 11 10 10 10
11 11 11 10 10 10 10 10 10 11 12 12 12 12 12 12 13 14 15 15 15 14 13 13 12 12 11 11 11 11 11 11 11 11 11 10 10 10 10 10 10 10 9 9
11 11 11 10 10 10 10 10 10 10 10 11 11 11 11 11 10 11 12 14 15 14 13 13 12 12 11 11 11 10 11 11 11 11 11 11 10 10 9 9 9 9 9 9
10 9 9 9 9 10 10 10 10 10 10 11 10 10 10 11 10 9 10 12 13 13 13 13 12 12 12 11 10 10 10 11 11 10 11 11 10 10 10 9 9 9 8 8
9 9 9 9 9 9 9 9 8 8 9 9 9 9 9 10 10 9 8 9 11 13 13 13 13 12 11 11 10 10 10 10 10 11 11 11 10 10 10 9 9 9 8 8
8 8 9 9 9 8 8 8 8 7 7 7 7 7 7 8 9 9 9 10 9 11 12 13 12 12 11 11 10 10 11 10 10 10 11 10 10 10 9 9 8 8 8 8
8 8 8 8 8 7 7 7 7 7 7 7 7 7 7 7 8 9 9 10 9 10 11 12 13 13 13 11 10 11 11 10 9 10 10 10 11 9 8 8 8 9 9 9
8 8 8 8 7 7 7 7 7 7 7 7 7 7 7 7 7 8 8 8 9 9 10 11 12 13 13 11 11 12 11 11 9 10 11 10 10 10 10 9 10 10 10 10
8 8 8 8 7 7 7 7 6 6 5 6 6 6 7 7 7 7 7 7 7 8 9 10 11 11 12 11 11 12 11 11 10 10 11 10 10 10 10 11 11 11 11 10
8 8 8 7 7 7 7 7 6 6 5 5 5 6 7 7 7 7 7 7 7 7 7 9 10 11 11 11 11 12 11 11 10 10 10 10 10 10 10 10 11 11 11 11
7 7 7 7 7 7 7 6 6 6 6 5 4 4 6 7 7 7 7 7 7 7 7 8 9 10 11 11 11 12 12 11 11 11 11 11 10 10 11 11 11 11 11 11
6 6 6 6 6 6 6 6 6 6 5 5 4 4 5 6 7 7 7 7 7 7 7 8 9 10 11 11 11 12 12 12 12 11 11 11 11 11 11 11 11 11 11 11
5 5 6 6 6 6 6 6 5 5 5 4 3 3 4 5 6 7 7 7 7 7 7 7 8 9 11 11 11 13 13 12 12 12 12 11 11 11 11 11 12 12 12 12
4 4 5 5 5 5 5 4 3 3 3 3 3 3 4 5 6 8 8 7 7 7 7 7 7 8 10 10 11 13 13 13 12 12 12 12 11 11 12 12 12 12 12 12
4 4 4 4 4 3 2 2 2 2 2 2 2 3 4 4 5 7 8 7 7 7 7 7 7 8 10 10 12 13 13 13 13 13 13 12 12 12 12 12 12 12 12 12
4 4 3 3 3 2 1 1 1 1 1 2 2 2 3 4 5 6 7 7 8 8 7 7 7 8 9 11 12 13 14 14 13 13 13 13 13 13 13 13 13 12 12 12
4 4 3 3 2 1 1 0 1 1 2 2 2 2 3 4 5 5 6 7 8 8 8 8 8 8 9 10 11 12 13 14 14 14 13 13 13 13 13 13 13 13 13 12
Wind_Speed
17 17 16 19 19 18 17 20 22 23 23 21 20 19 16 12 9 9 11 12 11 9 8 7 6 5 5 2 1 1 4 11 11 10 9 9 9 9 9 9 9 9 10 10
16 17 18 21 21 20 19 20 22 24 23 19 16 15 14 12 9 10 12 12 12 10 9 9 8 8 6 2 3 2 5 10 10 11 11 11 9 9 11 10 8 10 11 11
9 7 12 11 8 9 11 15 16 18 18 16 19 17 15 13 9 9 10 11 11 10 9 10 9 8 7 3 1 1 5 9 8 9 12 10 8 10 11 10 8 9 10 10
8 9 8 3 5 8 12 14 15 16 14 14 14 13 12 10 10 8 9 10 10 10 9 9 9 9 7 6 3 4 7 8 7 10 15 11 7 7 8 8 7 6 8 9
5 10 12 10 5 7 12 17 12 9 10 13 15 15 13 7 11 8 6 7 9 10 9 9 10 9 8 8 5 3 4 5 5 10 14 14 13 9 7 6 5 5 6 8
10 10 6 5 9 9 12 9 12 19 22 22 21 17 13 7 7 10 7 7 8 9 9 10 10 9 9 10 9 8 6 5 5 7 11 14 15 13 10 8 6 4 7 8
11 11 8 8 10 14 12 15 26 26 25 24 22 20 18 16 10 11 10 9 10 10 10 10 10 10 10 11 11 10 8 7 7 7 9 11 13 12 11 9 8 7 7 7
6 8 6 13 17 14 17 21 24 24 24 23 22 21 20 18 14 14 13 11 12 12 12 11 11 11 12 12 10 10 9 10 8 7 8 10 11 11 12 11 11 9 9 9
9 11 16 19 17 18 20 22 24 26 26 24 23 22 21 20 17 15 17 15 14 15 14 13 13 12 13 11 10 11 12 11 9 9 8 9 10 10 11 12 12 12 10 7
9 12 11 14 15 18 20 22 25 26 26 24 22 23 23 22 19 16 15 17 16 16 17 15 15 15 14 12 13 14 13 12 11 9 9 8 8 9 9 12 13 13 12 10
9 10 14 12 19 20 18 19 21 25 23 22 22 22 23 21 20 18 15 15 17 18 19 18 16 16 15 14 14 14 13 12 12 11 10 8 6 5 7 5 7 11 11 10
5 9 9 9 15 22 24 23 23 24 25 21 19 20 22 22 21 21 18 15 17 19 20 20 19 18 17 16 15 14 13 13 12 12 11 10 8 5 8 6 10 10 4 4
7 12 12 14 17 19 20 22 22 26 29 25 21 20 19 20 19 21 22 19 17 21 22 21 21 20 19 18 16 15 15 14 13 12 11 11 10 10 9 6 8 7 6 7
14 14 15 19 20 23 24 25 25 22 24 25 21 23 23 21 20 18 19 19 17 16 19 20 21 21 21 20 18 16 15 11 12 13 12 11 11 11 11 13 13 8 5 6
14 14 17 20 22 23 25 26 26 27 28 27 21 20 25 25 21 17 17 17 19 16 19 21 22 21 20 19 18 17 15 14 14 13 13 12 12 12 12 12 13 13 11 8
17 18 21 24 25 26 29 30 27 25 27 29 26 22 24 27 23 18 13 13 17 17 17 18 19 18 18 20 20 18 16 14 14 14 14 14 13 12 12 13 14 12 12 13
21 24 27 28 28 28 29 30 30 28 27 28 28 23 20 25 25 20 13 12 13 18 17 17 20 23 24 24 22 18 17 16 15 15 15 16 14 14 14 13 13 14 15 15
23 27 28 29 27 28 30 31 30 31 29 29 29 26 23 22 23 22 14 11 13 14 17 18 19 23 24 25 22 19 17 17 17 17 16 16 15 15 16 17 18 16 15 14
28 28 28 28 28 27 27 28 28 27 28 28 28 27 24 22 23 21 16 11 11 12 15 16 16 15 20 24 22 19 19 19 19 17 16 16 15 15 16 16 16 17 16 15
31 31 29 28 28 26 25 26 26 26 24 25 27 26 25 22 22 19 16 10 8 8 12 14 13 17 20 23 23 20 21 21 21 19 18 18 17 17 17 17 18 18 17 16
32 32 31 29 29 28 26 26 26 28 27 24 24 27 26 24 22 19 16 12 8 8 11 12 13 14 18 21 23 21 21 22 21 21 20 20 20 19 19 19 18 17 16 15
30 30 30 30 30 28 27 27 29 29 27 21 21 25 26 24 20 18 16 13 7 6 7 8 11 16 21 22 23 22 22 22 21 20 20 21 20 20 20 20 19 19 17 17
29 29 30 30 30 30 30 28 28 27 25 20 18 22 23 22 17 15 14 10 8 6 3 7 13 12 21 22 23 23 22 22 22 22 21 21 21 21 21 20 20 19 19 19
27 29 30 29 30 30 29 28 28 26 22 19 21 23 19 17 16 15 11 7 8 7 3 6 15 15 15 21 23 23 22 21 21 21 22 21 21 21 21 20 20 19 19 19
26 26 27 28 27 25 26 28 27 23 18 15 19 22 17 14 14 15 13 6 12 12 5 5 11 11 12 19 21 22 21 21 21 21 21 21 21 21 21 20 21 20 20 18
27 23 23 24 23 21 21 21 20 20 17 15 13 14 14 13 14 13 12 9 7 11 7 3 5 6 11 16 18 19 20 21 20 20 20 21 21 21 20 20 21 20 19 18
25 24 22 23 23 23 24 24 22 19 16 13 10 11 13 13 13 14 13 11 8 8 9 6 4 5 8 10 13 15 17 18 19 20 20 19 19 19 20 20 19 19 18 19
Wind_Direction
282 286 282 274 277 277 268 264 271 284 290 292 299 309 316 312 300 279 275 281 284 271 249 245 253 264 271 300 314 271 170 171 181 181 187 150 139 144 145 140 134 135 131 126
282 280 280 279 277 272 267 265 267 272 277 282 305 314 299 297 285 280 285 282 278 268 256 250 249 248 249 262 308 279 173 171 184 170 145 123 128 139 140 136 136 137 131 119
282 301 298 282 269 262 276 275 271 271 283 309 318 309 305 300 279 278 291 285 272 266 259 252 252 246 238 218 214 125 131 140 167 155 119 111 122 130 131 121 127 136 131 121
289 295 274 343 318 287 288 288 291 287 292 308 320 317 297 274 266 284 298 286 269 261 253 249 251 246 230 222 206 155 134 121 134 138 114 112 98 105 115 114 118 132 135 130
276 293 293 304 344 346 313 299 306 331 340 331 328 315 296 241 227 234 275 273 261 254 244 244 246 241 236 232 212 182 141 126 147 152 144 147 151 154 145 133 127 137 140 136
284 293 294 4 37 357 319 299 11 339 322 319 318 304 306 339 250 225 205 221 241 239 232 232 235 238 236 239 227 218 192 177 174 155 155 160 162 163 163 161 150 166 151 136
277 280 285 14 11 338 314 322 332 323 316 313 303 292 299 301 272 242 228 207 215 222 220 222 222 228 237 244 237 227 201 180 177 163 148 148 157 163 164 167 159 163 135 131
274 275 284 358 336 335 316 317 316 313 307 303 298 290 291 291 274 243 239 220 204 211 213 214 214 219 232 236 237 224 195 187 181 171 163 159 164 163 163 168 168 164 151 143
291 290 321 345 345 348 350 337 328 320 312 306 301 296 294 295 288 260 240 229 208 209 212 209 209 214 221 218 212 208 196 190 183 175 166 163 168 168 166 174 175 170 156 138
276 283 337 335 341 359 357 348 341 337 329 319 308 304 300 298 294 281 251 232 215 206 211 209 207 207 214 208 196 204 200 192 185 181 170 171 177 182 185 179 177 172 159 161
283 337 346 337 346 346 346 343 342 337 335 335 330 324 317 310 303 292 272 245 222 211 209 208 203 205 208 207 197 202 199 191 192 188 179 182 187 160 194 191 175 168 163 164
335 335 319 324 347 352 352 348 347 331 326 336 341 341 333 324 318 311 294 259 231 220 212 203 198 201 201 200 199 205 203 201 202 205 189 191 179 146 61 65 96 113 165 168
338 338 342 341 347 351 347 343 341 334 326 331 335 336 333 326 321 323 311 283 244 223 215 202 194 197 194 193 196 203 210 207 198 210 199 193 190 187 165 111 82 108 143 117
352 348 340 341 335 334 332 328 325 318 314 319 334 334 329 327 323 324 321 311 283 246 225 212 197 195 193 192 193 196 203 206 203 200 205 193 195 193 182 167 163 153 140 119
338 331 318 316 316 319 321 319 319 318 316 319 326 324 318 317 320 317 311 316 299 266 233 215 207 197 191 191 194 196 199 198 204 202 204 194 188 189 183 173 165 158 157 147
317 308 308 312 316 321 318 314 312 309 311 309 310 314 314 307 304 307 311 317 307 286 249 218 202 194 183 186 195 199 199 193 197 204 198 196 190 180 176 164 162 165 180 177
303 307 313 310 307 309 307 303 302 304 302 302 304 304 302 303 298 295 307 316 307 291 269 228 198 186 188 189 192 195 195 184 192 204 197 193 189 170 172 177 179 188 190 177
303 301 300 302 303 303 306 305 305 308 305 302 300 301 298 294 296 292 298 309 311 303 278 244 212 197 187 183 189 192 191 183 189 200 192 189 191 185 182 188 194 192 186 166
310 308 307 305 302 303 303 304 308 311 309 303 298 295 293 293 291 289 288 302 307 300 280 247 211 198 188 188 185 187 188 184 183 195 190 186 187 191 197 197 191 191 190 180
311 309 308 307 305 304 304 305 306 305 307 312 310 299 290 289 286 281 275 282 279 285 295 274 208 189 199 194 186 187 187 188 185 191 192 187 190 194 192 192 194 196 199 201
317 315 312 311 311 310 308 306 305 303 304 308 310 302 294 289 286 280 268 269 280 300 316 289 244 214 200 192 189 192 189 191 192 192 193 192 193 197 197 193 199 205 206 211
320 318 316 315 313 310 307 305 304 302 300 300 307 302 295 291 288 283 270 260 265 293 314 305 259 211 204 186 191 196 192 194 195 196 198 198 199 199 204 202 203 208 214 217
320 318 315 313 312 308 304 302 301 299 298 299 299 296 293 288 281 279 280 266 228 231 280 297 286 242 209 192 196 200 192 195 196 199 201 201 202 206 209 211 213 213 213 219
319 320 318 314 310 308 307 308 304 302 302 303 295 293 297 294 286 277 273 248 200 206 226 278 286 275 217 203 202 201 193 196 198 199 200 201 204 208 213 215 218 222 220 222
320 321 319 318 318 316 312 305 299 291 282 284 290 290 293 296 289 289 292 263 187 189 213 259 279 271 230 208 206 204 198 199 199 201 202 202 206 209 212 214 215 218 225 225
318 319 313 316 321 315 308 305 305 297 287 279 277 285 290 284 277 281 283 275 227 188 189 225 270 242 228 215 206 209 206 203 201 205 207 206 208 211 214 216 217 219 225 230
318 319 321 326 324 319 316 315 311 300 284 268 263 273 278 279 283 284 276 268 254 207 177 175 262 266 252 236 214 209 214 210 207 208 212 214 212 211 214 218 220 220 220 224
Height
1506 1502 1501 1501 1501 1501 1503 1502 1503 1495 1491 1485 1481 1479 1479 1478 1478 1478 1477 1475 1473 1473 1472 1473 1472 1473 1472 1471 1468 1466 1465 1465 1465 1465 1468 1473 1478 1479 1477 1475 1476 1479 1481 1482
1508 1502 1497 1495 1492 1491 1491 1490 1489 1488 1484 1478 1477 1477 1477 1475 1474 1473 1472 1471 1471 1470 1469 1470 1470 1471 1470 1468 1467 1465 1466 1466 1466 1465 1468 1474 1477 1478 1478 1477 1478 1480 1482 1484
1503 1501 1502 1495 1483 1484 1485 1481 1480 1480 1476 1473 1475 1474 1472 1471 1470 1468 1467 1467 1467 1467 1467 1467 1467 1468 1468 1467 1467 1465 1465 1466 1466 1465 1468 1473 1476 1477 1477 1477 1480 1482 1483 1485
1503 1504 1505 1487 1481 1482 1484 1480 1477 1475 1474 1475 1473 1471 1468 1467 1466 1465 1464 1463 1464 1464 1465 1465 1465 1465 1465 1465 1466 1467 1466 1465 1466 1467 1468 1471 1473 1475 1477 1478 1480 1484 1486 1487
1503 1500 1493 1481 1480 1483 1485 1482 1475 1475 1477 1477 1474 1470 1462 1460 1460 1460 1461 1461 1460 1460 1461 1461 1462 1462 1462 1462 1463 1464 1464 1464 1466 1466 1466 1468 1471 1474 1477 1479 1481 1485 1487 1487
1502 1507 1500 1485 1484 1487 1487 1482 1479 1481 1478 1474 1470 1465 1459 1459 1459 1456 1454 1455 1456 1456 1456 1456 1457 1458 1459 1460 1460 1461 1462 1464 1466 1466 1466 1467 1470 1473 1477 1480 1481 1484 1487 1486
1502 1501 1489 1485 1488 1489 1493 1485 1481 1478 1474 1472 1468 1463 1459 1456 1455 1453 1451 1449 1450 1451 1452 1452 1452 1453 1454 1456 1456 1458 1459 1461 1462 1463 1465 1466 1470 1472 1475 1477 1478 1482 1485 1486
1497 1501 1504 1491 1488 1493 1492 1484 1479 1475 1471 1467 1463 1458 1454 1451 1449 1448 1446 1444 1444 1446 1446 1447 1447 1448 1449 1450 1452 1454 1455 1457 1459 1460 1463 1465 1468 1470 1472 1474 1477 1481 1484 1486
1498 1496 1490 1489 1490 1490 1488 1483 1478 1473 1467 1462 1457 1453 1449 1445 1442 1441 1440 1439 1437 1439 1440 1441 1442 1443 1445 1446 1448 1450 1452 1454 1456 1458 1460 1463 1465 1468 1470 1472 1475 1479 1481 1483
1498 1492 1489 1492 1490 1489 1487 1483 1479 1473 1465 1457 1452 1448 1444 1440 1436 1434 1432 1431 1430 1430 1433 1435 1437 1438 1441 1443 1444 1447 1449 1451 1454 1456 1458 1460 1463 1465 1468 1470 1473 1476 1479 1481
1496 1495 1496 1492 1494 1490 1484 1479 1475 1471 1466 1458 1450 1443 1439 1435 1431 1428 1425 1424 1423 1422 1424 1427 1430 1433 1436 1438 1441 1443 1445 1448 1451 1454 1455 1458 1460 1463 1465 1468 1470 1473 1476 1478
1506 1506 1504 1498 1491 1490 1483 1477 1471 1468 1462 1454 1448 1440 1436 1432 1428 1424 1419 1416 1416 1415 1415 1418 1422 1425 1429 1433 1436 1439 1442 1445 1448 1451 1453 1455 1457 1459 1461 1464 1467 1470 1473 1477
1508 1506 1501 1498 1490 1484 1481 1475 1469 1466 1462 1452 1444 1437 1431 1428 1424 1417 1413 1409 1406 1405 1407 1409 1412 1417 1422 1426 1430 1433 1437 1440 1443 1446 1449 1451 1454 1456 1458 1461 1464 1468 1471 1474
1508 1505 1498 1492 1487 1479 1474 1469 1464 1460 1456 1449 1442 1435 1428 1423 1419 1412 1409 1405 1402 1400 1402 1404 1405 1409 1414 1420 1424 1427 1431 1434 1438 1442 1444 1447 1450 1453 1456 1457 1460 1464 1468 1471
1506 1502 1496 1488 1481 1475 1470 1465 1457 1454 1449 1441 1435 1430 1425 1418 1413 1408 1403 1399 1396 1393 1393 1396 1400 1402 1407 1413 1418 1422 1426 1429 1433 1437 1440 1443 1446 1449 1452 1455 1458 1461 1465 1468
1502 1496 1489 1483 1475 1467 1463 1459 1453 1446 1442 1438 1429 1421 1418 1413 1408 1403 1397 1391 1389 1386 1385 1386 1389 1394 1399 1405 1411 1416 1420 1424 1427 1431 1435 1439 1442 1445 1448 1452 1455 1458 1463 1466
1495 1487 1481 1475 1469 1458 1454 1449 1444 1436 1430 1425 1420 1414 1409 1404 1400 1396 1390 1384 1381 1379 1378 1380 1381 1386 1390 1395 1401 1408 1413 1417 1421 1426 1430 1433 1437 1441 1445 1449 1453 1457 1461 1464
1488 1481 1473 1467 1460 1453 1447 1441 1434 1426 1419 1415 1411 1406 1399 1395 1391 1387 1382 1375 1371 1367 1368 1372 1375 1378 1381 1385 1392 1400 1405 1410 1414 1420 1424 1429 1433 1437 1441 1445 1449 1454 1458 1461
1478 1471 1464 1458 1452 1447 1440 1433 1425 1419 1413 1406 1399 1394 1389 1387 1383 1376 1373 1368 1364 1361 1362 1366 1370 1373 1376 1380 1384 1392 1398 1404 1409 1414 1419 1424 1428 1432 1436 1440 1445 1449 1453 1456
1467 1460 1454 1447 1442 1437 1430 1423 1417 1410 1404 1398 1391 1386 1382 1377 1373 1368 1365 1361 1359 1357 1355 1355 1360 1365 1369 1374 1378 1384 1391 1397 1402 1408 1413 1418 1423 1427 1431 1435 1440 1444 1447 1451
1458 1451 1444 1437 1432 1426 1420 1415 1408 1401 1395 1389 1383 1377 1371 1366 1363 1361 1358 1354 1352 1350 1346 1345 1350 1357 1363 1368 1373 1379 1384 1390 1395 1401 1406 1412 1417 1422 1426 1430 1434 1437 1441 1445
1452 1445 1437 1430 1423 1416 1410 1404 1397 1390 1384 1378 1373 1367 1363 1359 1356 1353 1349 1346 1345 1344 1340 1339 1346 1352 1356 1360 1366 1373 1378 1384 1390 1395 1400 1405 1410 1415 1419 1423 1427 1431 1434 1438
1446 1439 1431 1423 1415 1407 1399 1392 1385 1378 1372 1366 1361 1357 1353 1351 1348 1345 1342 1340 1338 1337 1336 1336 1340 1344 1348 1353 1359 1366 1372 1378 1383 1389 1393 1399 1404 1409 1413 1416 1420 1423 1426 1430
1440 1432 1424 1415 1406 1397 1389 1381 1374 1367 1361 1356 1351 1347 1345 1342 1339 1337 1335 1334 1332 1331 1330 1332 1333 1335 1339 1346 1353 1359 1365 1371 1377 1382 1387 1392 1397 1401 1405 1409 1413 1416 1419 1423
1435 1426 1417 1408 1399 1389 1379 1368 1358 1350 1346 1343 1340 1336 1335 1333 1331 1330 1329 1328 1326 1327 1327 1329 1331 1331 1333 1340 1346 1352 1358 1364 1369 1374 1379 1385 1390 1394 1398 1402 1406 1410 1413 1416
1429 1419 1410 1401 1392 1380 1366 1355 1344 1336 1332 1329 1328 1327 1327 1326 1324 1323 1322 1322 1322 1321 1322 1322 1325 1326 1330 1336 1341 1346 1352 1357 1362 1367 1372 1377 1382 1386 1391 1395 1399 1402 1406 1409
1423 1414 1404 1394 1381 1368 1355 1343 1330 1321 1316 1315 1315 1316 1317 1319 1318 1317 1316 1317 1317 1317 1316 1317 1319 1320 1325 1331 1337 1342 1347 1351 1356 1361 1366 1370 1374 1378 1383 1388 1392 1395 1399 1403